Terminal Aerodrome Forecast
Issued by NWS

Home | Current Version | Previous Version | Text Only | Print | Product List | Glossary On
Versions: 1 2 3 4 5 6 7 8 9 10 11 12 13 14 15 16 17 18 19 20
000
FTUS43 KJKL 022333
TAFSJS
TAF
KSJS 022333Z 0300/0324 VRB05KT P6SM BKN004
     FM030200 VRB03KT 1SM BR OVC003
     FM030600 VRB03KT 1/2SM FG VV002
     FM031300 28004KT P6SM VCSH BKN003
     FM031700 28005KT P6SM VCSH BKN025=

USA.gov is the U.S. government's official web portal to all federal, state and local government web resources and services.